TimeEST,TemperatureF,Dew PointF,Humidity,Sea Level PressureIn,VisibilityMPH,Wind Direction,Wind SpeedMPH,Gust SpeedMPH,PrecipitationIn,Events,Conditions,WindDirDegrees,DateUTC
12:00 AM,36.7,29.1,74,30.22,10.0,ENE,3.5,-,N/A,,Overcast,60,2013-02-08 05:00:00
12:20 AM,36.7,28.9,74,30.21,10.0,NE,5.8,-,N/A,,Overcast,50,2013-02-08 05:20:00
12:40 AM,36.5,28.8,74,30.20,10.0,NE,3.5,-,N/A,,Overcast,40,2013-02-08 05:40:00
1:00 AM,36.3,28.4,73,30.18,10.0,NE,3.5,-,N/A,,Overcast,40,2013-02-08 06:00:00
1:20 AM,36.3,28.4,73,30.18,10.0,NNE,3.5,-,N/A,,Overcast,30,2013-02-08 06:20:00
1:40 AM,36.1,28.4,73,30.17,10.0,NE,4.6,-,N/A,,Overcast,40,2013-02-08 06:40:00
2:00 AM,36.1,28.4,73,30.16,10.0,NNE,3.5,-,N/A,,Overcast,30,2013-02-08 07:00:00
2:20 AM,36.0,29.1,76,30.14,10.0,Calm,Calm,-,N/A,,Overcast,0,2013-02-08 07:20:00
2:40 AM,35.6,30.2,81,30.13,10.0,NNE,3.5,-,N/A,,Overcast,20,2013-02-08 07:40:00
3:00 AM,35.2,32.0,88,30.12,10.0,Calm,Calm,-,N/A,,Mostly Cloudy,0,2013-02-08 08:00:00
3:20 AM,35.1,32.2,89,30.11,10.0,Calm,Calm,-,N/A,,Mostly Cloudy,0,2013-02-08 08:20:00
3:40 AM,34.9,32.5,91,30.10,7.0,Calm,Calm,-,N/A,,Mostly Cloudy,0,2013-02-08 08:40:00
3:55 AM,34.7,32.9,93,30.09,7.0,Calm,Calm,-,N/A,,Mostly Cloudy,0,2013-02-08 08:55:00
4:40 AM,34.7,33.8,97,30.07,7.0,Calm,Calm,-,N/A,,Overcast,0,2013-02-08 09:40:00
5:00 AM,34.7,34.2,98,30.07,7.0,Calm,Calm,-,N/A,,Overcast,0,2013-02-08 10:00:00
5:20 AM,35.1,34.9,99,30.05,7.0,North,4.6,-,N/A,,Overcast,350,2013-02-08 10:20:00
5:40 AM,35.2,35.2,100,30.03,7.0,North,4.6,-,N/A,,Mostly Cloudy,350,2013-02-08 10:40:00
6:00 AM,35.6,35.6,100,30.02,7.0,North,3.5,-,N/A,,Mostly Cloudy,360,2013-02-08 11:00:00
7:00 AM,36.5,36.5,100,29.99,7.0,North,5.8,-,N/A,,Mostly Cloudy,360,2013-02-08 12:00:00
7:20 AM,36.9,36.9,100,29.99,7.0,North,4.6,-,N/A,,Overcast,10,2013-02-08 12:20:00
7:40 AM,37.4,37.4,100,29.98,5.0,North,3.5,-,N/A,,Overcast,10,2013-02-08 12:40:00
9:10 AM,39.2,39.2,100,29.91,7.0,North,6.9,-,N/A,,Overcast,360,2013-02-08 14:10:00
9:30 AM,39.4,39.4,100,29.90,7.0,North,8.1,-,N/A,,Overcast,360,2013-02-08 14:30:00
9:50 AM,39.7,39.6,99,29.89,7.0,North,8.1,-,N/A,,Overcast,350,2013-02-08 14:50:00
10:10 AM,40.5,40.3,99,29.87,10.0,North,9.2,-,N/A,,Overcast,350,2013-02-08 15:10:00
10:30 AM,41.2,41.0,99,29.86,10.0,North,6.9,-,N/A,,Overcast,360,2013-02-08 15:30:00
10:50 AM,41.2,40.5,97,29.86,10.0,North,6.9,-,N/A,,Overcast,360,2013-02-08 15:50:00
11:05 AM,41.9,41.2,97,29.85,3.0,North,4.6,-,N/A,,Overcast,10,2013-02-08 16:05:00
11:30 AM,42.3,42.1,99,29.84,7.0,NNW,5.8,-,N/A,,Overcast,340,2013-02-08 16:30:00
11:50 AM,42.4,41.4,96,29.83,10.0,North,8.1,-,N/A,,Overcast,350,2013-02-08 16:50:00
12:10 PM,42.8,42.1,97,29.81,4.0,North,6.9,-,N/A,,Overcast,360,2013-02-08 17:10:00
12:30 PM,43.2,42.3,97,29.80,5.0,North,11.5,-,N/A,,Overcast,350,2013-02-08 17:30:00
12:50 PM,43.7,42.3,95,29.80,10.0,NW,6.9,-,N/A,,Overcast,320,2013-02-08 17:50:00
1:10 PM,43.0,41.2,93,29.78,7.0,NNW,8.1,-,N/A,,Overcast,330,2013-02-08 18:10:00
1:30 PM,42.6,40.8,93,29.77,5.0,NNW,6.9,-,N/A,,Overcast,340,2013-02-08 18:30:00
1:50 PM,42.6,41.0,94,29.76,5.0,North,10.4,-,N/A,,Overcast,350,2013-02-08 18:50:00
2:10 PM,43.0,41.0,93,29.76,7.0,NNW,6.9,-,N/A,,Overcast,330,2013-02-08 19:10:00
2:30 PM,43.2,40.6,91,29.76,7.0,NW,10.4,-,N/A,,Overcast,320,2013-02-08 19:30:00
2:50 PM,43.0,40.3,90,29.75,7.0,NW,6.9,-,N/A,,Overcast,320,2013-02-08 19:50:00
3:10 PM,43.0,40.1,90,29.75,7.0,NNW,9.2,-,N/A,,Overcast,330,2013-02-08 20:10:00
3:30 PM,42.8,40.1,90,29.76,7.0,NW,6.9,-,N/A,,Overcast,320,2013-02-08 20:30:00
3:50 PM,42.3,39.6,90,29.77,5.0,NW,13.8,17.3,N/A,,Overcast,310,2013-02-08 20:50:00
4:10 PM,41.5,39.2,91,29.77,4.0,NW,8.1,-,N/A,,Overcast,310,2013-02-08 21:10:00
4:30 PM,41.5,39.2,91,29.77,4.0,NW,8.1,-,N/A,,Overcast,320,2013-02-08 21:30:00
4:50 PM,41.9,39.9,93,29.77,5.0,NNW,4.6,-,N/A,,Overcast,330,2013-02-08 21:50:00
5:10 PM,41.7,39.4,91,29.78,5.0,NW,4.6,-,N/A,,Overcast,320,2013-02-08 22:10:00
5:30 PM,42.1,39.6,91,29.79,7.0,WNW,5.8,-,N/A,,Overcast,300,2013-02-08 22:30:00
5:50 PM,42.1,39.4,90,29.78,7.0,WNW,3.5,-,N/A,,Overcast,300,2013-02-08 22:50:00
6:30 PM,42.3,38.1,85,29.79,10.0,WNW,8.1,16.1,N/A,,Mostly Cloudy,300,2013-02-08 23:30:00
6:50 PM,41.9,37.9,86,29.80,10.0,NW,6.9,-,N/A,,Scattered Clouds,310,2013-02-08 23:50:00
7:10 PM,42.1,37.6,84,29.80,10.0,WNW,10.4,-,N/A,,Scattered Clouds,290,2013-02-09 00:10:00
7:30 PM,42.4,37.4,82,29.80,10.0,NNW,3.5,-,N/A,,Mostly Cloudy,340,2013-02-09 00:30:00
7:50 PM,43.3,36.5,77,29.81,10.0,WNW,9.2,17.3,N/A,,Overcast,290,2013-02-09 00:50:00
8:15 PM,43.9,32.2,63,29.82,10.0,WNW,12.7,25.3,N/A,,Overcast,290,2013-02-09 01:15:00
8:35 PM,43.2,31.3,63,29.84,10.0,NW,10.4,19.6,N/A,,Overcast,310,2013-02-09 01:35:00
8:55 PM,42.8,29.7,60,29.85,10.0,NW,17.3,28.8,N/A,,Overcast,310,2013-02-09 01:55:00
9:15 PM,42.1,28.6,59,29.86,10.0,WNW,18.4,32.2,N/A,,Overcast,300,2013-02-09 02:15:00
9:35 PM,41.4,28.4,60,29.86,10.0,WNW,13.8,28.8,N/A,,Overcast,290,2013-02-09 02:35:00
9:55 PM,40.3,27.0,59,29.87,10.0,NW,16.1,29.9,N/A,,Overcast,310,2013-02-09 02:55:00
10:15 PM,39.7,26.6,59,29.88,10.0,WNW,13.8,23.0,N/A,,Overcast,300,2013-02-09 03:15:00
10:35 PM,39.2,25.7,58,29.88,10.0,NW,17.3,33.4,N/A,,Mostly Cloudy,310,2013-02-09 03:35:00
10:55 PM,38.7,26.1,61,29.89,10.0,NNW,11.5,20.7,N/A,,Overcast,330,2013-02-09 03:55:00
11:15 PM,38.3,26.1,61,29.90,10.0,NW,10.4,19.6,N/A,,Overcast,310,2013-02-09 04:15:00
11:35 PM,38.3,24.6,58,29.90,10.0,WNW,24.2,38.0,N/A,,Mostly Cloudy,290,2013-02-09 04:35:00
11:55 PM,37.6,24.4,59,29.92,10.0,NW,10.4,24.2,N/A,,Mostly Cloudy,310,2013-02-09 04:55:00